Location: Caltech
(34.1382°N, 118.1253°W)
Time: 17:08:21
(UTC-07:00)

Daily predictions for brighter satellites

Satellite Brightness Start Highest point End
(mag) Time Altitude Azimuth Time Altitude Azimuth Time Altitude Azimuth
CZ-4B DEB 4.0 19:42:27 10° SE 19:45:13 25° ENE 19:47:59 10° NNE
NOSS 3-4 (A) 4.0 19:38:40 10° NNW 19:45:41 61° ENE 19:53:05 10° SE
NOSS 3-4 (C) 4.0 19:38:48 10° NNW 19:45:49 60° ENE 19:53:12 10° SE
Tiangong 1 3.5 19:44:36 10° NW 19:46:40 16° N 19:48:44 10° NE
Cosmos 1821 Rocket 4.0 19:45:36 10° S 19:51:42 85° E 19:57:49 10° N
Cosmos 1025 Rocket 3.4 19:49:08 10° NNW 19:53:27 69° W 19:57:43 10° S
Spot 2 Rocket 3.5 19:49:50 10° SSE 19:54:55 85° ENE 20:00:01 10° NNW
Cosmos 1605 Rocket 4.2 19:48:51 10° SSE 19:54:56 50° E 20:00:57 10° NNE
Cosmos 1697 Rocket 3.3 19:52:50 10° SSE 19:57:49 33° ESE 20:02:48 10° NE
Cosmos 2208 Rocket 4.3 19:52:52 10° SSW 19:58:10 76° WNW 20:03:34 10° NNE
METEOR-M 4.2 19:54:49 10° SSE 20:00:10 90° ESE 20:05:33 10° NNW
Cosmos 1626 Rocket 4.5 19:59:57 10° NNE 20:03:44 28° ENE 20:07:28 10° SE
Meteor 2-15 4.4 19:58:06 10° N 20:04:10 73° E 20:10:11 10° SSE
Cosmos 1455 Rocket 3.0 20:00:05 10° S 20:04:24 86° E 20:08:46 10° N
Cosmos 1892 Rocket 3.7 20:00:40 10° N 20:05:10 86° W 20:09:38 10° S
Iridium 4 Rocket 4.3 20:01:13 10° NNE 20:05:11 25° E 20:08:53 10° SE
Cosmos 2278 4.2 20:02:17 10° SSW 20:07:55 66° WNW 20:13:36 10° NNE
Meteor 2-15 Rocket 4.4 20:04:44 10° N 20:10:47 70° E 20:16:50 10° SSE
Cosmos 1602 Rocket 4.2 20:09:28 10° NNE 20:13:35 36° E 20:17:35 10° SSE
H-2A R/B 3.1 20:10:51 10° SSE 20:14:32 44° ENE 20:18:17 10° N
Resurs 1-3 3.9 20:13:53 10° S 20:18:14 69° WSW 20:22:37 10° NNW
Lacrosse 5 3.4 20:17:13 10° NNW 20:21:13 23° NE 20:24:05 15° E
Cosmos 1980 Rocket 2.9 20:16:29 10° SSE 20:21:23 31° ESE 20:26:18 10° NE
Cosmos 1975 2.8 20:19:15 10° S 20:23:18 66° E 20:27:22 10° NNE
Cosmos 2123 Rocket 4.0 20:23:01 10° N 20:29:12 86° W 20:35:22 10° S
ERS-1 Rocket 3.9 20:28:22 20° ESE 20:30:37 29° ENE 20:34:53 10° N
Orbus 7S 4.5 20:24:53 10° W 20:30:49 33° SSW 20:32:24 21° SSE
CZ-3C R/B 4.0 19:15:56 10° W 20:31:10 49° SSW 20:38:25 18° SE
Lacrosse 5 rocket 0.9 20:28:20 10° NW 20:32:01 70° NE 20:33:43 29° SE
Cosmos 1459 Rocket 4.4 20:28:15 10° SSE 20:33:46 38° E 20:39:19 10° NNE
ATLAS 3B CENTAUR R/B 2.5 20:35:07 10° SSW 20:35:08 10° SSW 20:35:08 10° SSW
CZ-2D R/B 3.3 20:33:10 10° S 20:37:02 81° WSW 20:40:55 10° NNW
Delta 2 Rocket 4.5 20:32:30 10° W 20:38:04 52° SSW 20:41:06 24° SE
FENGYUN 3A 3.7 20:33:02 10° S 20:38:23 82° WSW 20:43:46 10° NNW
CZ-4 DEB 3.9 20:40:10 27° ENE 20:40:10 27° ENE 20:42:35 10° NNE
EO 1 Delta rocket 4.4 20:35:56 10° N 20:40:46 72° W 20:46:33 10° SSW
Cosmos 1656 4.0 20:35:29 10° SSW 20:41:05 71° WNW 20:46:39 10° NNE
Cosmos 1763 Rocket 4.0 20:37:39 10° SSE 20:42:15 35° E 20:46:49 10° NE
Resurs 01 Rocket 3.8 20:39:15 10° SSW 20:42:57 26° W 20:46:41 10° NW
Cosmos 1500 3.0 20:39:54 10° S 20:43:38 73° E 20:47:24 10° N
Hubble Space Telescope 3.2 20:42:38 10° SW 20:44:24 12° SSW 20:46:00 10° S
Cosmos 1898 Rocket 3.5 20:45:19 10° N 20:50:33 60° ENE 20:52:53 32° SE
DELTA 2 R/B (1) 3.6 20:45:44 10° WNW 20:51:20 77° NNE 20:53:52 33° E
Cosmos 2322 Rocket 4.2 20:58:39 12° ENE 20:58:39 12° ENE 20:59:09 10° NE
Cosmos 2227 Rocket 3.0 20:49:32 10° NNW 20:55:00 50° WSW 21:00:24 10° S
Cosmos 1340 4.3 20:53:15 10° NNE 20:55:15 21° NE 20:55:15 21° NE
USA 186 2.8 20:55:35 21° SSW 20:57:16 42° W 21:00:04 10° NNW
Cosmos 468 Rocket 4.3 20:54:46 10° SSW 20:59:51 67° WNW 21:04:58 10° N
OAO 2 Rocket 3.3 20:54:52 10° W 20:59:53 81° N 21:01:47 39° E
Cosmos 1939 Rocket 3.2 21:00:58 45° ENE 21:01:01 45° ENE 21:05:00 10° N
OTV 4 1.7 20:59:13 10° W 21:01:32 33° SW 21:01:32 33° SW
ALOS 3.6 20:58:55 10° SSW 21:03:15 38° W 21:07:36 10° NNW
Milstar 3 Cent rocket 4.4 20:39:27 10° W 21:03:44 70° S 21:10:48 31° ESE
Cosmos 841 Rocket 3.5 21:03:14 29° SSE 21:05:40 53° ESE 21:10:45 10° NNE
Cosmos 1726 Rocket 4.5 21:07:22 33° NE 21:07:22 33° NE 21:10:16 10° NNE
Cosmos 2360 4.2 21:03:40 10° S 21:09:15 59° ESE 21:14:52 10° NNE
Cosmos 2297 Rocket 2.8 21:04:35 10° NNW 21:10:05 53° WSW 21:13:57 19° S
Cosmos 1515 4.3 21:07:34 10° NNW 21:11:20 54° W 21:12:43 33° SSW
Cosmos 1814 Rocket 4.5 21:06:18 10° SSW 21:11:35 63° WNW 21:16:51 10° N
Cosmos 1802 Rocket 3.9 21:06:39 14° S 21:12:14 72° E 21:18:39 10° N
Cosmos 972 Rocket 4.5 21:12:38 10° NNW 21:18:49 82° ENE 21:21:32 39° SSE
Cosmos 2016 Rocket 3.8 21:19:32 35° SSE 21:22:12 72° E 21:28:22 10° N
Cosmos 1743 3.1 21:23:18 59° WSW 21:23:40 63° W 21:27:34 10° N
Tiangong 1 3.3 21:21:02 10° NW 21:22:45 22° NNW 21:22:45 22° NNW
Cosmos 1825 Rocket 3.6 21:20:01 10° N 21:23:59 69° NNE 21:23:59 69° NNE
ASTEX 1 3.9 21:21:20 10° NNE 21:25:07 44° NE 21:25:07 44° NE
RESURS DK-1 2.7 21:28:01 10° NNW 21:31:31 61° NW 21:31:31 61° NW
H-2A R/B 2.9 21:35:03 39° N 21:35:03 39° N 21:37:46 10° N
Cosmos 2173 Rocket 4.4 21:28:06 10° SSW 21:34:25 64° W 21:40:42 10° N
Cosmos 1953 Rocket 4.2 21:30:59 10° N 21:34:19 48° NNE 21:34:19 48° NNE
Envisat 3.2 21:43:51 63° SW 21:44:14 65° WSW 21:49:18 10° NNW
Cosmos 1864 Rocket 4.3 21:50:50 77° ENE 21:50:50 77° ENE 21:56:40 10° N
Cosmos 967 Rocket 4.3 21:44:29 10° NNW 21:50:50 78° ENE 21:50:50 78° ENE
SL-16 R/B 3.5 21:54:57 28° NNE 21:54:57 28° NNE 21:57:31 10° NNE
Cosmos 1937 Rocket 4.2 21:46:52 10° NNW 21:51:57 49° WSW 21:52:28 47° WSW
ARGOS 4.2 21:57:55 36° NNE 21:57:55 36° NNE 22:01:22 10° N
Lacrosse 5 2.8 21:59:30 10° NW 22:03:17 44° W 22:03:17 44° W
Tsikada Rocket 4.1 21:58:25 10° N 22:04:10 71° NNE 22:04:10 71° NNE
H-2A R/B 4.1 22:08:09 17° NNE 22:08:09 17° NNE 22:09:28 10° N
Cosmos 1980 Rocket 3.9 22:00:19 10° WSW 22:05:16 31° WNW 22:10:16 10° N
SPOT 5 3.8 22:07:52 47° NW 22:07:52 47° NW 22:11:28 10° NNW
Terra 4.3 22:33:40 15° N 22:33:40 15° N 22:34:30 10° N
Cosmos 2263 Rocket 3.9 22:29:59 10° N 22:32:32 26° N 22:32:32 26° N
Cosmos 2322 Rocket 3.6 22:40:22 33° NNW 22:40:22 33° NNW 22:43:59 10° N
USA 215 4.3 22:53:25 37° N 22:53:25 37° N 22:58:10 10° NNW
